map of BKK home
BKK - Airport
Location
City:  Bangkok, Samut Prakan, Thailand
Name:Suvarnabhumi Bangkok International Airport
ICAO:VTBS
IATA:BKK

Details
Type:Airport (Aerodrome, Airfield)
Use:Public/Civil, International (customs port of entry)
Latitude:1340'52"N (13.681108)
Longitude:10044'50"E (100.747283)
Datum:WGS 1984
Elevation:5 ft (2 m)
Variation:0.68W (WMM2015v2 magnetic declination)
-0.03 annual change
Runways:2
Longest:13123 × 197 ft (4000 × 60 m), paved

Time
Time Zone:UTC+7
Local Time:

Weather
METAR:VTBS 041400Z 20006KT CAVOK 28/24 Q1012 NOSIG
TAF:VTBS 031700Z 0318/0424 19005KT 9000 FEW030
BECMG 0321/0323 VRB02KT 5000 BR
BECMG 0401/0403 20008KT 9000 NSW
BECMG 0421/0423 VRB02KT 5000 BR

Related Locations
Nearby:
Farthest:SPPR: 12258 mi / 19727 km
Chilca [Chilca Airport (Canete Airport, Professional Air)], LIM, PE

Find:

   beyond  
but within

Other Information
Maps:
NOTAMs:
Links:
Sources:

  
  • flag of Thailand
  

Sectional Chart

Flight Planning
at skyvector.com

Satellite Image

Google Maps Satellite view

 

Copyright © 2004-2019 Karl L. Swartz. All rights reserved.
The Great Circle Mapper name and logo are trademarks of the Great Circle Mapper.
All other trademarks mentioned herein belong to their respective owners.
Please see credits for attibutions and further copyright information.

  Follow gcmap on Facebook Follow gcmap on Twitter GCmap on LinkedIn

hCard Microformat

Geo Microformat